Regional Weather Roundup
Issued by NWS

Home | Current Version | Previous Version | Graphics & Text | Print | Product List | Glossary On
Versions: 1 2 3 4 5 6 7 8 9 10 11 12 13 14 15 16 17 18 19 20 21 22 23 24 25 26 27 28 29 30 31 32 33 34 35 36 37 38 39 40 41 42 43 44 45 46 47 48 49 50
543
ASUS45 KCYS 261610
RWRWY

WYOMING REGIONAL WEATHER ROUNDUP
NATIONAL WEATHER SERVICE CHEYENNE WY
1000 AM MDT FRI AUG 26 2016

NOTE:  "FAIR" INDICATES FEW OR NO CLOUDS BELOW 12,000 FEET
WITH NO SIGNIFICANT WEATHER AND/OR OBSTRUCTIONS TO VISIBILITY.

WYZ001-261700-
YELLOWSTONE NATIONAL PARK

CITY           SKY/WX    TMP DP  RH WIND       PRES   REMARKS
LK YELLOWSTONE   N/A     50  38  63 VRB3      30.26S
W YELLOWSTONE  NOT AVBL

$$
WYZ002>013-054>058-071-098>099-261700-
NORTHERN WYOMING

CITY           SKY/WX    TMP DP  RH WIND       PRES   REMARKS
JACKSON        SUNNY     54  36  50 CALM      30.20F
CODY           FAIR      55  45  67 N6        30.15S
GREYBULL       PTSUNNY   58  47  66 NW6       30.13S
WORLAND        FAIR      59  45  59 VRB3      30.13F
SHERIDAN       FAIR      65  44  46 W8        30.11F
BUFFALO        FAIR      63  40  42 NE7       30.15S
GILLETTE       FAIR      61  49  64 S14       30.12F
HULETT         FAIR      63  46  55 W7        30.13F
NEWCASTLE      FAIR      59  46  63 S8        30.15S

$$
WYZ014>020-022>026-101>103-261700-
CENTRAL WYOMING

CITY           SKY/WX    TMP DP  RH WIND       PRES   REMARKS
BIG PINEY      FAIR      47  38  71 CALM      30.23F
PINEDALE       FAIR      54  34  47 CALM      30.24S
DUBOIS         FAIR      52  36  54 CALM      30.20F
LANDER         FAIR      60  43  53 N5        30.16F
RIVERTON       FAIR      57  47  69 NW6       30.18S
CASPER         FAIR      58  46  64 SW5       30.17S
DOUGLAS        FAIR      55  49  80 VRB3      30.17S

$$
WYZ021-027>030-104>119-261700-
SOUTHERN WYOMING

CITY           SKY/WX    TMP DP  RH WIND       PRES   REMARKS
EVANSTON       FAIR      60  33  36 SE5       30.20F
FORT BRIDGER   PTSUNNY   55  36  47 CALM      30.24S
ROCK SPRINGS   FAIR      58  37  45 CALM      30.21S
DIXON          FAIR      64  39  40 SW12G21   30.26S
RAWLINS        FAIR      62  38  40 VRB7      30.22S
SARATOGA       FAIR      63  36  36 SE10G17   30.24S
LARAMIE        FAIR      60  38  43 SW12G22   30.23F
CHEYENNE       FAIR      61  48  62 S6        30.19S
TORRINGTON     FAIR      60  52  74 W6        30.11F
PINE BLUFFS    FAIR      59  55  88 S8G17     30.16R

$$




USA.gov is the U.S. government's official web portal to all federal, state and local government web resources and services.